This is the latest recevied weather packets stored in our database for station/object N5UKZ-WX. If no packets are shown the sender has not sent any weather packets the latest 10 day(s).
| Time | Temp. | Humidity | Pressure | Rain* | Wind** | Luminosity | Snow |
|---|---|---|---|---|---|---|---|
| 1787387859 | 23.89° C | 95% | 1014.6 hPa | 0 mm | - | - | - |
| 1787386929 | 25° C | 95% | 1014.6 hPa | 0 mm | - | - | - |
| 1787386029 | 24.44° C | 95% | 1014.6 hPa | 0 mm | - | - | - |
| 1787385099 | 24.44° C | 95% | 1014.6 hPa | 0 mm | - | - | - |
| 1787384169 | 25° C | 95% | 1014.3 hPa | 0 mm | - | - | - |
| 1787383239 | 24.44° C | 95% | 1014.3 hPa | 0 mm | - | - | - |
| 1787382339 | 25° C | 95% | 1014.6 hPa | 0 mm | - | - | - |
| 1787381409 | 25° C | 95% | 1014.9 hPa | 0 mm | - | - | - |
| 1787380509 | 24.44° C | 94% | 1014.9 hPa | 0 mm | - | - | - |
| 1787379579 | 25° C | 94% | 1014.9 hPa | 0 mm | - | - | - |
| 1787378679 | 25° C | 94% | 1014.9 hPa | 0 mm | - | - | - |
| 1787377749 | 24.44° C | 94% | 1014.6 hPa | 0 mm | - | - | - |
| 1787376819 | 24.44° C | 94% | 1014.9 hPa | 0 mm | - | - | - |
| 1787375889 | 24.44° C | 94% | 1015.3 hPa | 0 mm | - | - | - |
| 1787374959 | 24.44° C | 95% | 1015.3 hPa | 0 mm | - | - | - |
| 1787374029 | 24.44° C | 95% | 1016 hPa | 0 mm | - | - | - |
| 1787373129 | 23.89° C | 95% | 1016.3 hPa | 0 mm | - | - | - |
| 1787372199 | 25° C | 95% | 1016.3 hPa | 0 mm | - | - | - |
| 1787371299 | 25° C | 94% | 1016.3 hPa | 0 mm | - | - | - |
| 1787370399 | 24.44° C | 94% | 1016.6 hPa | 0 mm | - | - | - |
| 1787369499 | 23.89° C | 94% | 1017 hPa | 0 mm | - | - | - |
| 1787368569 | 25° C | 94% | 1016.6 hPa | 0 mm | - | - | - |
| 1787367669 | 24.44° C | 95% | 1016.3 hPa | 0 mm | - | - | - |
| 1787366739 | 23.89° C | 95% | 1016 hPa | 0 mm | - | - | - |
| 1787365839 | 23.33° C | 95% | 1015.3 hPa | 0.25 mm | - | - | - |
* Rain latest hour (hover to see other rain measurements)
** Current wind speed in m/s (hover to see current wind gust speed)